SAUDISAT 3 (31118 NORAD) Tracking and Keplerian Element Data

This shows tracking and keplerian element data for the satellite.

Feedback or suggestion? Click here.




ElementValue
Catalog31118
NameSAUDISAT 3
Epoch Orbit95454
Epoch Day34.92045678
Epoch Year2025
RAAN342.1568
Inclination98.085
Eccentricity0.0015217
Argument of Perigee18.1707
Mean Anonmoly342.004
Mean Motion14.70827406
Decay Rate9.55E-06
L11 31118U 07012B 25034.92045678 .00000955 00000+0 16427-3 0 9990
L22 31118 98.0850 342.1568 0015217 18.1707 342.0040 14.70827406954544



Live tracking and technical data element details for SAUDISAT 3 (NORAD 31118). SAUDISAT 3 can be tracked NOW for your location showing map with azimuth and elevation plus other details from your city location.







IsCatalogInMostPopularTable: catalog: 31118, numindb: 403
Update: records affected: 1



GetName: 31118 SAUDISAT 3

Hit Count: updated at: Fri, 16 May 2025 11:13:22 GMT